owner,sensor,date,latitude,longitude,vertical_datum,sea_water_practical_salinity,qcFlag 
ENP,ioos.station.NOAA.NDBC:BNKF1:1,2016-07-01T16:00:00Z,25.0870,-80.5190,1.5,34.98,1111122 
ENP,ioos.station.NOAA.NDBC:BNKF1:1,2016-07-01T17:00:00Z,25.0870,-80.5190,1.5,35.0,1111122 
ENP,ioos.station.NOAA.NDBC:BNKF1:1,2016-07-01T18:00:00Z,25.0870,-80.5190,1.5,35.0,1111122 
ENP,ioos.station.NOAA.NDBC:BNKF1:1,2016-07-01T19:00:00Z,25.0870,-80.5190,1.5,35.0,1111122 
ENP,ioos.station.NOAA.NDBC:BNKF1:1,2016-07-01T20:00:00Z,25.0870,-80.5190,1.5,35.05,1111122 
ENP,ioos.station.NOAA.NDBC:BNKF1:1,2016-07-01T21:00:00Z,25.0870,-80.5190,1.5,35.06,1111122 
ENP,ioos.station.NOAA.NDBC:BNKF1:1,2016-07-01T22:00:00Z,25.0870,-80.5190,1.5,35.06,1111122 
ENP,ioos.station.NOAA.NDBC:BNKF1:1,2016-07-01T23:00:00Z,25.0870,-80.5190,1.5,35.08,1111122 
ENP,ioos.station.NOAA.NDBC:BNKF1:1,2016-07-02T00:00:00Z,25.0870,-80.5190,1.5,35.09,1111122 
ENP,ioos.station.NOAA.NDBC:BNKF1:1,2016-07-02T01:00:00Z,25.0870,-80.5190,1.5,35.09,1111122 
ENP,ioos.station.NOAA.NDBC:BNKF1:1,2016-07-02T04:00:00Z,25.0870,-80.5190,1.5,35.04,1111122 
ENP,ioos.station.NOAA.NDBC:BNKF1:1,2016-07-02T07:00:00Z,25.0870,-80.5190,1.5,35.04,1111122 
ENP,ioos.station.NOAA.NDBC:BNKF1:1,2016-07-02T08:00:00Z,25.0870,-80.5190,1.5,35.03,1111122 
ENP,ioos.station.NOAA.NDBC:BNKF1:1,2016-07-02T09:00:00Z,25.0870,-80.5190,1.5,34.97,1111122 
ENP,ioos.station.NOAA.NDBC:BNKF1:1,2016-07-02T10:00:00Z,25.0870,-80.5190,1.5,35.0,1111122 
ENP,ioos.station.NOAA.NDBC:BNKF1:1,2016-07-02T11:00:00Z,25.0870,-80.5190,1.5,34.94,1111122 
ENP,ioos.station.NOAA.NDBC:BNKF1:1,2016-07-02T12:00:00Z,25.0870,-80.5190,1.5,34.92,1111122 
ENP,ioos.station.NOAA.NDBC:BNKF1:1,2016-07-02T13:00:00Z,25.0870,-80.5190,1.5,34.9,1111122 
ENP,ioos.station.NOAA.NDBC:BNKF1:1,2016-07-02T14:00:00Z,25.0870,-80.5190,1.5,34.86,1111122 
ENP,ioos.station.NOAA.NDBC:BNKF1:1,2016-07-02T15:00:00Z,25.0870,-80.5190,1.5,34.85,1111122 
ENP,ioos.station.NOAA.NDBC:BNKF1:1,2016-07-02T16:00:00Z,25.0870,-80.5190,1.5,34.86,1111122 
ENP,ioos.station.NOAA.NDBC:BNKF1:1,2016-07-02T17:00:00Z,25.0870,-80.5190,1.5,34.87,1111122 
ENP,ioos.station.NOAA.NDBC:BNKF1:1,2016-07-02T18:00:00Z,25.0870,-80.5190,1.5,34.9,1111122 
ENP,ioos.station.NOAA.NDBC:BNKF1:1,2016-07-02T19:00:00Z,25.0870,-80.5190,1.5,34.88,1111122 
ENP,ioos.station.NOAA.NDBC:BNKF1:1,2016-07-02T20:00:00Z,25.0870,-80.5190,1.5,34.88,1111122 
ENP,ioos.station.NOAA.NDBC:BNKF1:1,2016-07-02T21:00:00Z,25.0870,-80.5190,1.5,34.89,1111122 
ENP,ioos.station.NOAA.NDBC:BNKF1:1,2016-07-02T22:00:00Z,25.0870,-80.5190,1.5,34.9,1111122 
ENP,ioos.station.NOAA.NDBC:BNKF1:1,2016-07-02T23:00:00Z,25.0870,-80.5190,1.5,34.9,1111122 
ENP,ioos.station.NOAA.NDBC:BNKF1:1,2016-07-03T00:00:00Z,25.0870,-80.5190,1.5,34.89,1111122 
ENP,ioos.station.NOAA.NDBC:BNKF1:1,2016-07-03T01:00:00Z,25.0870,-80.5190,1.5,34.89,1111122 
ENP,ioos.station.NOAA.NDBC:BNKF1:1,2016-07-03T04:00:00Z,25.0870,-80.5190,1.5,34.91,1111122 
ENP,ioos.station.NOAA.NDBC:BNKF1:1,2016-07-03T07:00:00Z,25.0870,-80.5190,1.5,34.87,1111122 
ENP,ioos.station.NOAA.NDBC:BNKF1:1,2016-07-03T08:00:00Z,25.0870,-80.5190,1.5,34.83,1111122 
ENP,ioos.station.NOAA.NDBC:BNKF1:1,2016-07-03T09:00:00Z,25.0870,-80.5190,1.5,34.84,1111122 
ENP,ioos.station.NOAA.NDBC:BNKF1:1,2016-07-03T11:00:00Z,25.0870,-80.5190,1.5,34.85,1111122 
ENP,ioos.station.NOAA.NDBC:BNKF1:1,2016-07-03T12:00:00Z,25.0870,-80.5190,1.5,34.86,1111122 
ENP,ioos.station.NOAA.NDBC:BNKF1:1,2016-07-03T13:00:00Z,25.0870,-80.5190,1.5,34.85,1111122 
ENP,ioos.station.NOAA.NDBC:BNKF1:1,2016-07-03T14:00:00Z,25.0870,-80.5190,1.5,34.86,1111122 
ENP,ioos.station.NOAA.NDBC:BNKF1:1,2016-07-03T15:00:00Z,25.0870,-80.5190,1.5,34.88,1111122 
ENP,ioos.station.NOAA.NDBC:BNKF1:1,2016-07-03T16:00:00Z,25.0870,-80.5190,1.5,34.89,1111122 
ENP,ioos.station.NOAA.NDBC:BNKF1:1,2016-07-03T17:00:00Z,25.0870,-80.5190,1.5,34.95,1111122 
ENP,ioos.station.NOAA.NDBC:BNKF1:1,2016-07-03T18:00:00Z,25.0870,-80.5190,1.5,34.98,1111122 
ENP,ioos.station.NOAA.NDBC:BNKF1:1,2016-07-03T19:00:00Z,25.0870,-80.5190,1.5,35.03,1111122 
ENP,ioos.station.NOAA.NDBC:BNKF1:1,2016-07-03T20:00:00Z,25.0870,-80.5190,1.5,35.03,1111122 
ENP,ioos.station.NOAA.NDBC:BNKF1:1,2016-07-03T21:00:00Z,25.0870,-80.5190,1.5,35.03,1111122 
ENP,ioos.station.NOAA.NDBC:BNKF1:1,2016-07-03T22:00:00Z,25.0870,-80.5190,1.5,35.03,1111122 
ENP,ioos.station.NOAA.NDBC:BNKF1:1,2016-07-03T23:00:00Z,25.0870,-80.5190,1.5,35.01,1111122 
ENP,ioos.station.NOAA.NDBC:BNKF1:1,2016-07-04T00:00:00Z,25.0870,-80.5190,1.5,35.03,1111122 
ENP,ioos.station.NOAA.NDBC:BNKF1:1,2016-07-04T01:00:00Z,25.0870,-80.5190,1.5,35.03,1111122 
ENP,ioos.station.NOAA.NDBC:BNKF1:1,2016-07-04T02:00:00Z,25.0870,-80.5190,1.5,35.01,1111122 
ENP,ioos.station.NOAA.NDBC:BNKF1:1,2016-07-04T04:00:00Z,25.0870,-80.5190,1.5,35.01,1111122 
ENP,ioos.station.NOAA.NDBC:BNKF1:1,2016-07-04T06:00:00Z,25.0870,-80.5190,1.5,35.0,1111122 
ENP,ioos.station.NOAA.NDBC:BNKF1:1,2016-07-04T07:00:00Z,25.0870,-80.5190,1.5,35.0,1111122 
ENP,ioos.station.NOAA.NDBC:BNKF1:1,2016-07-04T08:00:00Z,25.0870,-80.5190,1.5,35.01,1111122 
ENP,ioos.station.NOAA.NDBC:BNKF1:1,2016-07-04T09:00:00Z,25.0870,-80.5190,1.5,35.01,1111122 
ENP,ioos.station.NOAA.NDBC:BNKF1:1,2016-07-04T11:00:00Z,25.0870,-80.5190,1.5,35.0,1111122 
ENP,ioos.station.NOAA.NDBC:BNKF1:1,2016-07-04T12:00:00Z,25.0870,-80.5190,1.5,34.99,1111122 
ENP,ioos.station.NOAA.NDBC:BNKF1:1,2016-07-04T13:00:00Z,25.0870,-80.5190,1.5,35.0,1111122 
ENP,ioos.station.NOAA.NDBC:BNKF1:1,2016-07-04T14:00:00Z,25.0870,-80.5190,1.5,35.0,1111122 
ENP,ioos.station.NOAA.NDBC:BNKF1:1,2016-07-04T15:00:00Z,25.0870,-80.5190,1.5,35.0,1111122 
ENP,ioos.station.NOAA.NDBC:BNKF1:1,2016-07-04T16:00:00Z,25.0870,-80.5190,1.5,35.06,1111122 
ENP,ioos.station.NOAA.NDBC:BNKF1:1,2016-07-04T17:00:00Z,25.0870,-80.5190,1.5,35.03,1111122 
ENP,ioos.station.NOAA.NDBC:BNKF1:1,2016-07-04T18:00:00Z,25.0870,-80.5190,1.5,35.09,1111122 
ENP,ioos.station.NOAA.NDBC:BNKF1:1,2016-07-04T19:00:00Z,25.0870,-80.5190,1.5,35.06,1111122 
ENP,ioos.station.NOAA.NDBC:BNKF1:1,2016-07-04T20:00:00Z,25.0870,-80.5190,1.5,35.07,1111122 
ENP,ioos.station.NOAA.NDBC:BNKF1:1,2016-07-04T21:00:00Z,25.0870,-80.5190,1.5,35.06,1111122 
ENP,ioos.station.NOAA.NDBC:BNKF1:1,2016-07-04T22:00:00Z,25.0870,-80.5190,1.5,35.07,1111122 
ENP,ioos.station.NOAA.NDBC:BNKF1:1,2016-07-04T23:00:00Z,25.0870,-80.5190,1.5,35.06,1111122 
ENP,ioos.station.NOAA.NDBC:BNKF1:1,2016-07-05T00:00:00Z,25.0870,-80.5190,1.5,35.06,1111122 
ENP,ioos.station.NOAA.NDBC:BNKF1:1,2016-07-05T01:00:00Z,25.0870,-80.5190,1.5,35.07,1111122 
ENP,ioos.station.NOAA.NDBC:BNKF1:1,2016-07-05T04:00:00Z,25.0870,-80.5190,1.5,35.06,1111122 
ENP,ioos.station.NOAA.NDBC:BNKF1:1,2016-07-05T07:00:00Z,25.0870,-80.5190,1.5,35.05,1111122 
ENP,ioos.station.NOAA.NDBC:BNKF1:1,2016-07-05T08:00:00Z,25.0870,-80.5190,1.5,35.04,1111122 
ENP,ioos.station.NOAA.NDBC:BNKF1:1,2016-07-05T09:00:00Z,25.0870,-80.5190,1.5,35.03,1111122 
ENP,ioos.station.NOAA.NDBC:BNKF1:1,2016-07-05T10:00:00Z,25.0870,-80.5190,1.5,35.03,1111122 
ENP,ioos.station.NOAA.NDBC:BNKF1:1,2016-07-05T11:00:00Z,25.0870,-80.5190,1.5,35.03,1111122 
ENP,ioos.station.NOAA.NDBC:BNKF1:1,2016-07-05T12:00:00Z,25.0870,-80.5190,1.5,35.05,1111122 
ENP,ioos.station.NOAA.NDBC:BNKF1:1,2016-07-05T13:00:00Z,25.0870,-80.5190,1.5,35.06,1111122 
ENP,ioos.station.NOAA.NDBC:BNKF1:1,2016-07-05T14:00:00Z,25.0870,-80.5190,1.5,35.06,1111122 
ENP,ioos.station.NOAA.NDBC:BNKF1:1,2016-07-05T15:00:00Z,25.0870,-80.5190,1.5,35.09,1111122 
ENP,ioos.station.NOAA.NDBC:BNKF1:1,2016-07-05T16:00:00Z,25.0870,-80.5190,1.5,35.11,1111122 
ENP,ioos.station.NOAA.NDBC:BNKF1:1,2016-07-05T17:00:00Z,25.0870,-80.5190,1.5,35.15,1111122 
ENP,ioos.station.NOAA.NDBC:BNKF1:1,2016-07-05T18:00:00Z,25.0870,-80.5190,1.5,35.17,1111122 
ENP,ioos.station.NOAA.NDBC:BNKF1:1,2016-07-05T19:00:00Z,25.0870,-80.5190,1.5,35.18,1111122 
ENP,ioos.station.NOAA.NDBC:BNKF1:1,2016-07-05T21:00:00Z,25.0870,-80.5190,1.5,35.25,1111122 
ENP,ioos.station.NOAA.NDBC:BNKF1:1,2016-07-05T22:00:00Z,25.0870,-80.5190,1.5,35.23,1111122 
ENP,ioos.station.NOAA.NDBC:BNKF1:1,2016-07-05T23:00:00Z,25.0870,-80.5190,1.5,35.23,1111122 
ENP,ioos.station.NOAA.NDBC:BNKF1:1,2016-07-06T00:00:00Z,25.0870,-80.5190,1.5,35.23,1111122 
ENP,ioos.station.NOAA.NDBC:BNKF1:1,2016-07-06T01:00:00Z,25.0870,-80.5190,1.5,35.23,1111122 
ENP,ioos.station.NOAA.NDBC:BNKF1:1,2016-07-06T04:00:00Z,25.0870,-80.5190,1.5,35.21,1111122 
ENP,ioos.station.NOAA.NDBC:BNKF1:1,2016-07-06T07:00:00Z,25.0870,-80.5190,1.5,35.2,1111122 
ENP,ioos.station.NOAA.NDBC:BNKF1:1,2016-07-06T08:00:00Z,25.0870,-80.5190,1.5,35.21,1111122 
ENP,ioos.station.NOAA.NDBC:BNKF1:1,2016-07-06T09:00:00Z,25.0870,-80.5190,1.5,35.22,1111122 
ENP,ioos.station.NOAA.NDBC:BNKF1:1,2016-07-06T11:00:00Z,25.0870,-80.5190,1.5,35.21,1111122 
ENP,ioos.station.NOAA.NDBC:BNKF1:1,2016-07-06T12:00:00Z,25.0870,-80.5190,1.5,35.22,1111122 
ENP,ioos.station.NOAA.NDBC:BNKF1:1,2016-07-06T13:00:00Z,25.0870,-80.5190,1.5,35.22,1111122 
ENP,ioos.station.NOAA.NDBC:BNKF1:1,2016-07-06T14:00:00Z,25.0870,-80.5190,1.5,35.23,1111122 
ENP,ioos.station.NOAA.NDBC:BNKF1:1,2016-07-06T15:00:00Z,25.0870,-80.5190,1.5,35.25,1111122 
ENP,ioos.station.NOAA.NDBC:BNKF1:1,2016-07-06T16:00:00Z,25.0870,-80.5190,1.5,35.25,1111122 
ENP,ioos.station.NOAA.NDBC:BNKF1:1,2016-07-06T17:00:00Z,25.0870,-80.5190,1.5,35.28,1111122 
ENP,ioos.station.NOAA.NDBC:BNKF1:1,2016-07-06T18:00:00Z,25.0870,-80.5190,1.5,35.33,1111122 
ENP,ioos.station.NOAA.NDBC:BNKF1:1,2016-07-06T19:00:00Z,25.0870,-80.5190,1.5,35.35,1111122 
ENP,ioos.station.NOAA.NDBC:BNKF1:1,2016-07-06T20:00:00Z,25.0870,-80.5190,1.5,35.38,1111122 
ENP,ioos.station.NOAA.NDBC:BNKF1:1,2016-07-06T21:00:00Z,25.0870,-80.5190,1.5,35.38,1111122 
ENP,ioos.station.NOAA.NDBC:BNKF1:1,2016-07-06T22:00:00Z,25.0870,-80.5190,1.5,35.4,1111122 
ENP,ioos.station.NOAA.NDBC:BNKF1:1,2016-07-06T23:00:00Z,25.0870,-80.5190,1.5,35.4,1111122 
ENP,ioos.station.NOAA.NDBC:BNKF1:1,2016-07-07T00:00:00Z,25.0870,-80.5190,1.5,35.4,1111122 
ENP,ioos.station.NOAA.NDBC:BNKF1:1,2016-07-07T04:00:00Z,25.0870,-80.5190,1.5,35.4,1111122 
ENP,ioos.station.NOAA.NDBC:BNKF1:1,2016-07-07T07:00:00Z,25.0870,-80.5190,1.5,35.39,1111122 
ENP,ioos.station.NOAA.NDBC:BNKF1:1,2016-07-07T08:00:00Z,25.0870,-80.5190,1.5,35.4,1111122 
ENP,ioos.station.NOAA.NDBC:BNKF1:1,2016-07-07T09:00:00Z,25.0870,-80.5190,1.5,35.42,1111122 
ENP,ioos.station.NOAA.NDBC:BNKF1:1,2016-07-07T11:00:00Z,25.0870,-80.5190,1.5,35.41,1111122 
ENP,ioos.station.NOAA.NDBC:BNKF1:1,2016-07-07T12:00:00Z,25.0870,-80.5190,1.5,35.38,1111122 
ENP,ioos.station.NOAA.NDBC:BNKF1:1,2016-07-07T13:00:00Z,25.0870,-80.5190,1.5,35.36,1111122 
ENP,ioos.station.NOAA.NDBC:BNKF1:1,2016-07-07T14:00:00Z,25.0870,-80.5190,1.5,35.37,1111122 
ENP,ioos.station.NOAA.NDBC:BNKF1:1,2016-07-07T15:00:00Z,25.0870,-80.5190,1.5,35.23,1111122 
ENP,ioos.station.NOAA.NDBC:BNKF1:1,2016-07-07T16:00:00Z,25.0870,-80.5190,1.5,35.25,1111122 
ENP,ioos.station.NOAA.NDBC:BNKF1:1,2016-07-07T17:00:00Z,25.0870,-80.5190,1.5,35.3,1111122 
ENP,ioos.station.NOAA.NDBC:BNKF1:1,2016-07-07T18:00:00Z,25.0870,-80.5190,1.5,35.37,1111122 
ENP,ioos.station.NOAA.NDBC:BNKF1:1,2016-07-07T19:00:00Z,25.0870,-80.5190,1.5,35.43,1111122 
ENP,ioos.station.NOAA.NDBC:BNKF1:1,2016-07-07T20:00:00Z,25.0870,-80.5190,1.5,35.51,1111122 
ENP,ioos.station.NOAA.NDBC:BNKF1:1,2016-07-07T21:00:00Z,25.0870,-80.5190,1.5,35.51,1111122 
ENP,ioos.station.NOAA.NDBC:BNKF1:1,2016-07-07T22:00:00Z,25.0870,-80.5190,1.5,35.53,1111122 
ENP,ioos.station.NOAA.NDBC:BNKF1:1,2016-07-07T23:00:00Z,25.0870,-80.5190,1.5,35.53,1111122 
ENP,ioos.station.NOAA.NDBC:BNKF1:1,2016-07-08T00:00:00Z,25.0870,-80.5190,1.5,35.51,1111122 
ENP,ioos.station.NOAA.NDBC:BNKF1:1,2016-07-08T01:00:00Z,25.0870,-80.5190,1.5,35.51,1111122 
ENP,ioos.station.NOAA.NDBC:BNKF1:1,2016-07-08T04:00:00Z,25.0870,-80.5190,1.5,35.48,1111122 
ENP,ioos.station.NOAA.NDBC:BNKF1:1,2016-07-08T07:00:00Z,25.0870,-80.5190,1.5,35.46,1111122 
ENP,ioos.station.NOAA.NDBC:BNKF1:1,2016-07-08T08:00:00Z,25.0870,-80.5190,1.5,35.45,1111122 
ENP,ioos.station.NOAA.NDBC:BNKF1:1,2016-07-08T09:00:00Z,25.0870,-80.5190,1.5,35.45,1111122 
ENP,ioos.station.NOAA.NDBC:BNKF1:1,2016-07-08T10:00:00Z,25.0870,-80.5190,1.5,35.45,1111122 
ENP,ioos.station.NOAA.NDBC:BNKF1:1,2016-07-08T11:00:00Z,25.0870,-80.5190,1.5,35.45,1111122 
ENP,ioos.station.NOAA.NDBC:BNKF1:1,2016-07-08T12:00:00Z,25.0870,-80.5190,1.5,35.45,1111122 
ENP,ioos.station.NOAA.NDBC:BNKF1:1,2016-07-08T13:00:00Z,25.0870,-80.5190,1.5,35.45,1111122 
ENP,ioos.station.NOAA.NDBC:BNKF1:1,2016-07-08T14:00:00Z,25.0870,-80.5190,1.5,35.45,1111122 
ENP,ioos.station.NOAA.NDBC:BNKF1:1,2016-07-08T15:00:00Z,25.0870,-80.5190,1.5,35.48,1111122 
ENP,ioos.station.NOAA.NDBC:BNKF1:1,2016-07-08T16:00:00Z,25.0870,-80.5190,1.5,35.47,1111122 
ENP,ioos.station.NOAA.NDBC:BNKF1:1,2016-07-08T17:00:00Z,25.0870,-80.5190,1.5,35.55,1111122 
ENP,ioos.station.NOAA.NDBC:BNKF1:1,2016-07-08T18:00:00Z,25.0870,-80.5190,1.5,35.55,1111122 
ENP,ioos.station.NOAA.NDBC:BNKF1:1,2016-07-08T19:00:00Z,25.0870,-80.5190,1.5,35.5,1111122 
ENP,ioos.station.NOAA.NDBC:BNKF1:1,2016-07-08T20:00:00Z,25.0870,-80.5190,1.5,35.47,1111122 
ENP,ioos.station.NOAA.NDBC:BNKF1:1,2016-07-08T21:00:00Z,25.0870,-80.5190,1.5,35.46,1111122 
ENP,ioos.station.NOAA.NDBC:BNKF1:1,2016-07-08T22:00:00Z,25.0870,-80.5190,1.5,35.5,1111122 
ENP,ioos.station.NOAA.NDBC:BNKF1:1,2016-07-08T23:00:00Z,25.0870,-80.5190,1.5,35.52,1111122 
ENP,ioos.station.NOAA.NDBC:BNKF1:1,2016-07-09T00:00:00Z,25.0870,-80.5190,1.5,35.52,1111122 
ENP,ioos.station.NOAA.NDBC:BNKF1:1,2016-07-09T01:00:00Z,25.0870,-80.5190,1.5,35.54,1111122 
ENP,ioos.station.NOAA.NDBC:BNKF1:1,2016-07-09T04:00:00Z,25.0870,-80.5190,1.5,35.54,1111122 
ENP,ioos.station.NOAA.NDBC:BNKF1:1,2016-07-09T07:00:00Z,25.0870,-80.5190,1.5,35.43,1111122 
ENP,ioos.station.NOAA.NDBC:BNKF1:1,2016-07-09T08:00:00Z,25.0870,-80.5190,1.5,35.42,1111122 
ENP,ioos.station.NOAA.NDBC:BNKF1:1,2016-07-09T09:00:00Z,25.0870,-80.5190,1.5,35.13,1111122 
ENP,ioos.station.NOAA.NDBC:BNKF1:1,2016-07-09T10:00:00Z,25.0870,-80.5190,1.5,35.11,1111122 
ENP,ioos.station.NOAA.NDBC:BNKF1:1,2016-07-09T11:00:00Z,25.0870,-80.5190,1.5,34.96,1111122 
ENP,ioos.station.NOAA.NDBC:BNKF1:1,2016-07-09T12:00:00Z,25.0870,-80.5190,1.5,34.89,1111122 
ENP,ioos.station.NOAA.NDBC:BNKF1:1,2016-07-09T14:00:00Z,25.0870,-80.5190,1.5,34.89,1111122 
ENP,ioos.station.NOAA.NDBC:BNKF1:1,2016-07-09T15:00:00Z,25.0870,-80.5190,1.5,34.86,1111122 
ENP,ioos.station.NOAA.NDBC:BNKF1:1,2016-07-09T16:00:00Z,25.0870,-80.5190,1.5,34.89,1111122 
ENP,ioos.station.NOAA.NDBC:BNKF1:1,2016-07-09T17:00:00Z,25.0870,-80.5190,1.5,34.89,1111122 
ENP,ioos.station.NOAA.NDBC:BNKF1:1,2016-07-09T18:00:00Z,25.0870,-80.5190,1.5,34.93,1111122 
ENP,ioos.station.NOAA.NDBC:BNKF1:1,2016-07-09T19:00:00Z,25.0870,-80.5190,1.5,34.98,1111122 
ENP,ioos.station.NOAA.NDBC:BNKF1:1,2016-07-09T20:00:00Z,25.0870,-80.5190,1.5,34.99,1111122 
ENP,ioos.station.NOAA.NDBC:BNKF1:1,2016-07-09T21:00:00Z,25.0870,-80.5190,1.5,35.03,1111122 
ENP,ioos.station.NOAA.NDBC:BNKF1:1,2016-07-09T22:00:00Z,25.0870,-80.5190,1.5,35.0,1111122 
ENP,ioos.station.NOAA.NDBC:BNKF1:1,2016-07-09T23:00:00Z,25.0870,-80.5190,1.5,34.97,1111122 
ENP,ioos.station.NOAA.NDBC:BNKF1:1,2016-07-10T00:00:00Z,25.0870,-80.5190,1.5,34.95,1111122 
ENP,ioos.station.NOAA.NDBC:BNKF1:1,2016-07-10T01:00:00Z,25.0870,-80.5190,1.5,34.95,1111122 
ENP,ioos.station.NOAA.NDBC:BNKF1:1,2016-07-10T04:00:00Z,25.0870,-80.5190,1.5,34.94,1111122 
ENP,ioos.station.NOAA.NDBC:BNKF1:1,2016-07-10T07:00:00Z,25.0870,-80.5190,1.5,34.94,1111122 
ENP,ioos.station.NOAA.NDBC:BNKF1:1,2016-07-10T08:00:00Z,25.0870,-80.5190,1.5,34.94,1111122 
ENP,ioos.station.NOAA.NDBC:BNKF1:1,2016-07-10T09:00:00Z,25.0870,-80.5190,1.5,34.97,1111122 
ENP,ioos.station.NOAA.NDBC:BNKF1:1,2016-07-10T10:00:00Z,25.0870,-80.5190,1.5,34.99,1111122 
ENP,ioos.station.NOAA.NDBC:BNKF1:1,2016-07-10T12:00:00Z,25.0870,-80.5190,1.5,35.0,1111122 
ENP,ioos.station.NOAA.NDBC:BNKF1:1,2016-07-10T13:00:00Z,25.0870,-80.5190,1.5,35.11,1111122 
ENP,ioos.station.NOAA.NDBC:BNKF1:1,2016-07-10T14:00:00Z,25.0870,-80.5190,1.5,35.21,1111122 
ENP,ioos.station.NOAA.NDBC:BNKF1:1,2016-07-10T15:00:00Z,25.0870,-80.5190,1.5,35.22,1111122 
ENP,ioos.station.NOAA.NDBC:BNKF1:1,2016-07-10T16:00:00Z,25.0870,-80.5190,1.5,35.23,1111122 
ENP,ioos.station.NOAA.NDBC:BNKF1:1,2016-07-10T17:00:00Z,25.0870,-80.5190,1.5,35.22,1111122 
ENP,ioos.station.NOAA.NDBC:BNKF1:1,2016-07-10T18:00:00Z,25.0870,-80.5190,1.5,35.23,1111122 
ENP,ioos.station.NOAA.NDBC:BNKF1:1,2016-07-10T19:00:00Z,25.0870,-80.5190,1.5,35.25,1111122 
ENP,ioos.station.NOAA.NDBC:BNKF1:1,2016-07-10T20:00:00Z,25.0870,-80.5190,1.5,35.27,1111122 
ENP,ioos.station.NOAA.NDBC:BNKF1:1,2016-07-10T21:00:00Z,25.0870,-80.5190,1.5,35.29,1111122 
ENP,ioos.station.NOAA.NDBC:BNKF1:1,2016-07-10T22:00:00Z,25.0870,-80.5190,1.5,35.29,1111122 
ENP,ioos.station.NOAA.NDBC:BNKF1:1,2016-07-10T23:00:00Z,25.0870,-80.5190,1.5,35.29,1111122 
ENP,ioos.station.NOAA.NDBC:BNKF1:1,2016-07-11T00:00:00Z,25.0870,-80.5190,1.5,35.26,1111122 
ENP,ioos.station.NOAA.NDBC:BNKF1:1,2016-07-11T01:00:00Z,25.0870,-80.5190,1.5,35.25,1111122 
ENP,ioos.station.NOAA.NDBC:BNKF1:1,2016-07-11T02:00:00Z,25.0870,-80.5190,1.5,35.24,1111122 
ENP,ioos.station.NOAA.NDBC:BNKF1:1,2016-07-11T04:00:00Z,25.0870,-80.5190,1.5,35.16,1111122 
ENP,ioos.station.NOAA.NDBC:BNKF1:1,2016-07-11T07:00:00Z,25.0870,-80.5190,1.5,35.17,1111122 
ENP,ioos.station.NOAA.NDBC:BNKF1:1,2016-07-11T08:00:00Z,25.0870,-80.5190,1.5,35.2,1111122 
ENP,ioos.station.NOAA.NDBC:BNKF1:1,2016-07-11T09:00:00Z,25.0870,-80.5190,1.5,35.2,1111122 
ENP,ioos.station.NOAA.NDBC:BNKF1:1,2016-07-11T11:00:00Z,25.0870,-80.5190,1.5,35.22,1111122 
ENP,ioos.station.NOAA.NDBC:BNKF1:1,2016-07-11T12:00:00Z,25.0870,-80.5190,1.5,35.23,1111122 
ENP,ioos.station.NOAA.NDBC:BNKF1:1,2016-07-11T13:00:00Z,25.0870,-80.5190,1.5,35.27,1111122 
ENP,ioos.station.NOAA.NDBC:BNKF1:1,2016-07-11T14:00:00Z,25.0870,-80.5190,1.5,35.29,1111122 
ENP,ioos.station.NOAA.NDBC:BNKF1:1,2016-07-11T15:00:00Z,25.0870,-80.5190,1.5,35.27,1111122 
ENP,ioos.station.NOAA.NDBC:BNKF1:1,2016-07-11T16:00:00Z,25.0870,-80.5190,1.5,35.31,1111122 
ENP,ioos.station.NOAA.NDBC:BNKF1:1,2016-07-11T17:00:00Z,25.0870,-80.5190,1.5,35.31,1111122 
ENP,ioos.station.NOAA.NDBC:BNKF1:1,2016-07-11T18:00:00Z,25.0870,-80.5190,1.5,35.34,1111122 
ENP,ioos.station.NOAA.NDBC:BNKF1:1,2016-07-11T19:00:00Z,25.0870,-80.5190,1.5,35.37,1111122 
ENP,ioos.station.NOAA.NDBC:BNKF1:1,2016-07-11T20:00:00Z,25.0870,-80.5190,1.5,35.41,1111122 
ENP,ioos.station.NOAA.NDBC:BNKF1:1,2016-07-11T21:00:00Z,25.0870,-80.5190,1.5,35.42,1111122 
ENP,ioos.station.NOAA.NDBC:BNKF1:1,2016-07-11T22:00:00Z,25.0870,-80.5190,1.5,35.47,1111122 
ENP,ioos.station.NOAA.NDBC:BNKF1:1,2016-07-11T23:00:00Z,25.0870,-80.5190,1.5,35.5,1111122 
ENP,ioos.station.NOAA.NDBC:BNKF1:1,2016-07-12T00:00:00Z,25.0870,-80.5190,1.5,35.51,1111122 
ENP,ioos.station.NOAA.NDBC:BNKF1:1,2016-07-12T01:00:00Z,25.0870,-80.5190,1.5,35.51,1111122 
ENP,ioos.station.NOAA.NDBC:BNKF1:1,2016-07-12T04:00:00Z,25.0870,-80.5190,1.5,35.52,1111122 
ENP,ioos.station.NOAA.NDBC:BNKF1:1,2016-07-12T07:00:00Z,25.0870,-80.5190,1.5,35.51,1111122 
ENP,ioos.station.NOAA.NDBC:BNKF1:1,2016-07-12T08:00:00Z,25.0870,-80.5190,1.5,35.55,1111122 
ENP,ioos.station.NOAA.NDBC:BNKF1:1,2016-07-12T09:00:00Z,25.0870,-80.5190,1.5,35.43,1111122 
ENP,ioos.station.NOAA.NDBC:BNKF1:1,2016-07-12T10:00:00Z,25.0870,-80.5190,1.5,35.35,1111122 
ENP,ioos.station.NOAA.NDBC:BNKF1:1,2016-07-12T11:00:00Z,25.0870,-80.5190,1.5,35.38,1111122 
ENP,ioos.station.NOAA.NDBC:BNKF1:1,2016-07-12T12:00:00Z,25.0870,-80.5190,1.5,35.38,1111122 
ENP,ioos.station.NOAA.NDBC:BNKF1:1,2016-07-12T13:00:00Z,25.0870,-80.5190,1.5,35.41,1111122 
ENP,ioos.station.NOAA.NDBC:BNKF1:1,2016-07-12T14:00:00Z,25.0870,-80.5190,1.5,35.45,1111122 
ENP,ioos.station.NOAA.NDBC:BNKF1:1,2016-07-12T15:00:00Z,25.0870,-80.5190,1.5,35.51,1111122 
ENP,ioos.station.NOAA.NDBC:BNKF1:1,2016-07-12T16:00:00Z,25.0870,-80.5190,1.5,35.53,1111122 
ENP,ioos.station.NOAA.NDBC:BNKF1:1,2016-07-12T17:00:00Z,25.0870,-80.5190,1.5,35.59,1111122 
ENP,ioos.station.NOAA.NDBC:BNKF1:1,2016-07-12T18:00:00Z,25.0870,-80.5190,1.5,35.62,1111122 
ENP,ioos.station.NOAA.NDBC:BNKF1:1,2016-07-12T19:00:00Z,25.0870,-80.5190,1.5,35.64,1111122 
ENP,ioos.station.NOAA.NDBC:BNKF1:1,2016-07-12T20:00:00Z,25.0870,-80.5190,1.5,35.66,1111122 
ENP,ioos.station.NOAA.NDBC:BNKF1:1,2016-07-12T21:00:00Z,25.0870,-80.5190,1.5,35.7,1111122 
ENP,ioos.station.NOAA.NDBC:BNKF1:1,2016-07-12T22:00:00Z,25.0870,-80.5190,1.5,35.7,1111122 
ENP,ioos.station.NOAA.NDBC:BNKF1:1,2016-07-12T23:00:00Z,25.0870,-80.5190,1.5,35.72,1111122 
ENP,ioos.station.NOAA.NDBC:BNKF1:1,2016-07-13T00:00:00Z,25.0870,-80.5190,1.5,35.72,1111122 
ENP,ioos.station.NOAA.NDBC:BNKF1:1,2016-07-13T01:00:00Z,25.0870,-80.5190,1.5,35.74,1111122 
ENP,ioos.station.NOAA.NDBC:BNKF1:1,2016-07-13T04:00:00Z,25.0870,-80.5190,1.5,35.71,1111122 
ENP,ioos.station.NOAA.NDBC:BNKF1:1,2016-07-13T07:00:00Z,25.0870,-80.5190,1.5,35.7,1111122 
ENP,ioos.station.NOAA.NDBC:BNKF1:1,2016-07-13T08:00:00Z,25.0870,-80.5190,1.5,35.69,1111122 
ENP,ioos.station.NOAA.NDBC:BNKF1:1,2016-07-13T09:00:00Z,25.0870,-80.5190,1.5,35.67,1111122 
ENP,ioos.station.NOAA.NDBC:BNKF1:1,2016-07-13T11:00:00Z,25.0870,-80.5190,1.5,35.65,1111122 
ENP,ioos.station.NOAA.NDBC:BNKF1:1,2016-07-13T12:00:00Z,25.0870,-80.5190,1.5,35.68,1111122 
ENP,ioos.station.NOAA.NDBC:BNKF1:1,2016-07-13T14:00:00Z,25.0870,-80.5190,1.5,35.67,1111122 
ENP,ioos.station.NOAA.NDBC:BNKF1:1,2016-07-13T18:00:00Z,25.0870,-80.5190,1.5,35.75,1111122 
ENP,ioos.station.NOAA.NDBC:BNKF1:1,2016-07-13T20:00:00Z,25.0870,-80.5190,1.5,35.79,1111122 
ENP,ioos.station.NOAA.NDBC:BNKF1:1,2016-07-13T21:00:00Z,25.0870,-80.5190,1.5,35.81,1111122 
ENP,ioos.station.NOAA.NDBC:BNKF1:1,2016-07-13T22:00:00Z,25.0870,-80.5190,1.5,35.82,1111122 
ENP,ioos.station.NOAA.NDBC:BNKF1:1,2016-07-13T23:00:00Z,25.0870,-80.5190,1.5,35.82,1111122 
ENP,ioos.station.NOAA.NDBC:BNKF1:1,2016-07-14T00:00:00Z,25.0870,-80.5190,1.5,35.83,1111122 
ENP,ioos.station.NOAA.NDBC:BNKF1:1,2016-07-14T01:00:00Z,25.0870,-80.5190,1.5,35.82,1111122 
ENP,ioos.station.NOAA.NDBC:BNKF1:1,2016-07-14T04:00:00Z,25.0870,-80.5190,1.5,35.91,1111122 
ENP,ioos.station.NOAA.NDBC:BNKF1:1,2016-07-14T07:00:00Z,25.0870,-80.5190,1.5,35.82,1111122 
ENP,ioos.station.NOAA.NDBC:BNKF1:1,2016-07-14T08:00:00Z,25.0870,-80.5190,1.5,35.83,1111122 
ENP,ioos.station.NOAA.NDBC:BNKF1:1,2016-07-14T09:00:00Z,25.0870,-80.5190,1.5,35.82,1111122 
ENP,ioos.station.NOAA.NDBC:BNKF1:1,2016-07-14T11:00:00Z,25.0870,-80.5190,1.5,35.82,1111122 
ENP,ioos.station.NOAA.NDBC:BNKF1:1,2016-07-14T12:00:00Z,25.0870,-80.5190,1.5,35.79,1111122 
ENP,ioos.station.NOAA.NDBC:BNKF1:1,2016-07-14T13:00:00Z,25.0870,-80.5190,1.5,35.75,1111122 
ENP,ioos.station.NOAA.NDBC:BNKF1:1,2016-07-14T14:00:00Z,25.0870,-80.5190,1.5,35.77,1111122 
ENP,ioos.station.NOAA.NDBC:BNKF1:1,2016-07-14T15:00:00Z,25.0870,-80.5190,1.5,35.77,1111122 
ENP,ioos.station.NOAA.NDBC:BNKF1:1,2016-07-14T16:00:00Z,25.0870,-80.5190,1.5,35.74,1111122 
ENP,ioos.station.NOAA.NDBC:BNKF1:1,2016-07-14T17:00:00Z,25.0870,-80.5190,1.5,35.76,1111122 
ENP,ioos.station.NOAA.NDBC:BNKF1:1,2016-07-14T18:00:00Z,25.0870,-80.5190,1.5,35.78,1111122 
ENP,ioos.station.NOAA.NDBC:BNKF1:1,2016-07-14T19:00:00Z,25.0870,-80.5190,1.5,35.85,1111122 
ENP,ioos.station.NOAA.NDBC:BNKF1:1,2016-07-14T20:00:00Z,25.0870,-80.5190,1.5,35.88,1111122 
ENP,ioos.station.NOAA.NDBC:BNKF1:1,2016-07-14T21:00:00Z,25.0870,-80.5190,1.5,35.97,1111122 
ENP,ioos.station.NOAA.NDBC:BNKF1:1,2016-07-14T22:00:00Z,25.0870,-80.5190,1.5,36.05,1111122 
ENP,ioos.station.NOAA.NDBC:BNKF1:1,2016-07-14T23:00:00Z,25.0870,-80.5190,1.5,36.11,1111122 
ENP,ioos.station.NOAA.NDBC:BNKF1:1,2016-07-15T00:00:00Z,25.0870,-80.5190,1.5,36.11,1111122 
ENP,ioos.station.NOAA.NDBC:BNKF1:1,2016-07-15T01:00:00Z,25.0870,-80.5190,1.5,36.1,1111122 
ENP,ioos.station.NOAA.NDBC:BNKF1:1,2016-07-15T04:00:00Z,25.0870,-80.5190,1.5,36.1,1111122 
ENP,ioos.station.NOAA.NDBC:BNKF1:1,2016-07-15T07:00:00Z,25.0870,-80.5190,1.5,36.31,1111122 
ENP,ioos.station.NOAA.NDBC:BNKF1:1,2016-07-15T08:00:00Z,25.0870,-80.5190,1.5,36.12,1111122 